GFSMW_925_spd_099.txt.gz
Wind_Speed
16 25 28 31 25 19 17 15 15 13 12 11 13 17 20 21 27 28 40 41 33 39 41 44 37 41 37 34 34 32 28 26 28 24 17 13 13 17 17 14 19 21 20
17 17 25 26 25 22 18 17 15 13 11 15 13 14 23 26 31 33 37 40 35 31 36 37 34 36 37 37 32 31 28 20 27 26 15 1 6 13 16 19 24 21 19
20 18 17 23 28 23 23 20 18 14 13 13 14 16 24 23 24 31 31 39 33 32 36 37 37 34 34 35 32 32 28 24 25 30 8 3 3 5 16 24 23 25 25
19 16 16 19 25 24 23 22 21 19 15 14 17 22 20 21 22 31 35 35 35 32 35 35 38 38 31 31 30 28 29 29 26 20 16 8 12 3 1 9 26 28 27
23 21 19 24 27 27 24 23 22 23 19 16 17 21 17 18 26 27 36 38 35 33 32 36 35 34 33 30 29 29 28 24 23 26 19 16 10 11 3 2 7 21 30
19 18 20 27 26 28 26 23 23 24 24 22 19 22 24 25 25 26 29 31 31 33 27 25 27 31 30 28 29 27 23 24 21 25 18 14 8 12 7 3 7 11 16
19 19 19 16 25 28 26 25 24 21 27 24 26 24 30 33 31 31 27 28 28 28 30 30 27 28 31 29 25 25 23 26 26 24 22 19 15 15 16 15 10 11 19
18 19 20 18 26 28 27 26 27 23 27 27 26 25 31 30 28 32 28 30 34 37 36 33 34 38 35 33 28 24 26 27 29 27 25 24 21 21 22 23 18 4 8
17 18 18 20 27 28 28 28 28 26 27 25 29 26 30 28 28 32 33 32 29 28 28 35 37 35 32 29 28 28 29 31 28 30 30 27 26 27 28 28 28 18 7
17 17 18 17 28 31 30 28 29 27 27 27 28 28 30 32 29 30 31 30 30 29 30 37 37 39 32 29 28 28 27 30 32 33 30 29 30 30 30 32 33 34 24
17 18 17 22 29 30 31 31 30 28 30 29 26 27 30 32 31 32 33 33 33 34 33 37 37 38 37 36 33 31 30 36 33 31 29 33 33 34 33 35 38 36 31
7 14 18 17 24 28 30 31 28 29 30 34 27 28 29 34 35 35 34 34 34 38 39 40 39 40 42 43 39 33 33 33 33 31 32 35 35 35 36 36 37 34 34
12 5 15 17 17 25 28 30 30 28 32 33 34 29 31 34 34 36 38 36 35 37 39 38 41 40 40 38 40 41 40 37 36 35 35 36 32 30 30 30 28 27 27
6 9 12 17 17 28 30 32 33 34 32 34 33 34 33 33 35 34 34 38 38 37 40 39 38 37 38 39 40 38 39 37 32 27 25 21 20 20 19 18 16 10 10
22 18 10 3 17 22 26 29 32 36 36 35 33 34 32 33 32 33 34 36 34 34 35 35 34 36 35 35 36 37 33 31 25 17 11 8 5 3 4 5 2 1 3
18 18 20 18 17 18 26 31 32 35 37 34 35 32 33 33 34 35 34 36 33 30 34 35 33 30 33 33 32 30 23 20 17 15 13 12 13 15 15 15 14 11 14
15 16 16 16 18 23 13 30 32 34 35 34 32 35 34 33 32 31 32 31 33 32 29 29 27 22 19 15 21 21 18 16 16 16 17 18 18 19 19 21 21 22 20
14 15 14 18 26 27 24 10 23 37 35 33 32 32 34 35 32 33 34 33 32 30 25 21 20 20 15 14 16 19 20 23 24 23 22 22 19 18 18 21 19 23 20
9 10 18 23 25 27 32 18 21 26 29 32 32 32 30 30 32 30 29 28 29 26 25 24 24 24 22 21 25 26 30 32 31 27 25 24 22 19 18 19 20 22 19
12 15 21 20 24 29 32 23 16 8 9 22 24 27 32 35 32 31 31 30 31 31 29 28 25 25 26 23 26 30 36 37 32 27 24 22 22 19 18 19 19 23 18
13 16 17 16 18 24 23 20 19 19 11 15 19 20 23 28 30 31 28 31 37 40 36 36 32 29 27 27 29 31 34 33 30 27 24 24 21 22 22 23 23 20 14
11 15 14 15 19 21 16 13 16 14 18 21 24 26 26 28 33 35 33 30 33 36 36 38 35 34 31 28 24 25 29 30 33 27 26 24 22 22 21 22 17 15 14
14 15 13 11 15 18 11 9 9 16 22 27 27 28 30 29 29 34 34 30 29 28 27 26 28 29 30 35 33 25 27 30 32 30 27 23 21 21 22 20 19 17 16
12 15 14 11 11 13 11 10 12 18 25 31 28 28 30 30 30 29 26 26 26 25 28 27 26 23 20 22 32 31 24 29 29 27 24 23 24 20 21 21 20 19 17
6 13 12 12 10 10 12 12 14 21 25 27 29 30 30 32 34 34 29 30 27 25 31 30 30 23 25 18 24 23 22 27 26 25 21 20 19 17 18 20 18 18 17
9 11 14 14 13 12 13 14 18 26 27 27 27 28 31 33 34 39 46 44 40 36 35 34 36 32 27 23 22 26 22 24 20 23 22 23 21 18 17 18 17 18 16

GFSMW_925_spd_105.txt.gz
Wind_Speed
1 10 19 24 29 30 30 27 25 22 22 19 16 13 12 17 11 18 25 21 32 42 39 38 44 44 43 42 43 41 31 28 28 28 20 18 19 21 21 22 21 20 18
4 5 14 21 26 28 30 27 26 24 23 21 18 13 15 10 13 12 27 26 38 41 41 39 43 44 37 37 42 39 31 29 32 19 14 3 5 16 20 21 21 21 20
11 11 12 21 22 25 30 28 27 25 23 20 16 13 10 13 11 9 26 35 42 40 37 40 42 41 38 40 40 41 33 27 31 33 9 3 3 5 14 24 23 23 23
11 13 15 13 23 24 28 28 28 25 21 20 18 17 12 8 10 15 18 37 42 39 34 38 39 38 35 36 41 39 36 30 26 29 14 6 9 3 1 11 25 28 26
15 17 18 20 19 25 28 28 28 25 22 20 18 17 14 16 15 14 23 34 37 42 37 37 36 35 33 38 40 38 37 33 29 26 15 10 9 8 3 3 6 19 26
11 13 13 17 18 22 25 28 27 25 23 20 17 17 16 16 17 21 21 25 32 34 37 35 36 36 37 38 40 40 38 36 34 31 26 15 6 5 4 1 3 8 14
10 14 16 16 21 24 24 26 24 20 24 17 17 17 18 19 19 25 25 25 28 30 36 41 40 41 40 35 36 33 33 33 36 36 29 18 12 8 7 7 2 5 9
10 17 16 16 21 25 25 25 24 22 25 21 19 18 18 19 21 24 26 28 33 32 38 35 37 40 41 40 36 28 25 20 21 20 28 25 21 14 11 10 1 2 5
6 5 8 11 22 25 27 27 24 24 25 27 23 20 18 19 21 23 27 27 25 30 38 40 40 40 39 37 40 35 31 23 14 16 17 19 18 16 17 19 17 18 3
6 6 7 6 12 20 23 25 26 26 27 26 26 25 23 20 20 23 23 25 27 27 33 37 39 39 35 37 32 29 32 33 27 27 24 23 22 20 21 28 27 25 17
17 8 9 10 7 8 14 23 25 25 27 27 26 25 24 25 24 25 26 25 28 32 33 34 36 37 38 33 34 35 34 33 35 34 32 28 25 27 32 29 28 25 23
18 17 7 10 12 6 8 11 16 24 27 28 27 26 26 25 27 26 27 28 29 30 33 31 32 33 32 34 35 33 32 34 33 33 30 30 27 25 31 31 29 30 31
17 15 10 6 5 10 9 9 13 14 15 24 26 25 27 28 29 30 29 28 28 29 30 36 34 30 33 37 38 39 36 34 35 32 30 27 29 34 35 31 28 26 24
12 12 9 9 2 9 14 14 14 14 15 17 18 22 25 27 28 31 31 32 30 31 33 32 31 31 32 36 38 37 33 30 31 31 31 29 29 30 29 26 27 23 20
11 11 10 7 8 13 8 14 19 21 20 20 21 19 19 23 25 29 32 31 33 34 35 35 34 35 34 34 36 34 32 32 31 29 27 25 26 29 28 24 20 15 11
8 8 9 9 8 12 11 11 11 20 23 25 24 23 19 22 25 24 28 30 32 31 33 34 35 35 36 35 37 35 35 33 31 28 22 17 9 6 7 11 11 10 13
4 8 9 11 15 13 15 14 13 11 24 24 23 24 27 23 24 24 24 26 29 31 31 32 32 32 33 33 33 32 32 31 30 26 21 15 14 16 19 23 23 21 18
7 9 9 10 13 18 18 19 20 11 21 24 26 28 29 28 24 26 26 27 26 29 28 28 29 29 29 31 30 30 31 27 22 22 22 22 21 21 23 25 27 26 23
6 6 11 13 17 14 18 13 7 10 15 22 25 26 28 26 25 23 26 27 26 26 28 28 26 25 22 20 24 28 25 23 21 20 22 24 24 22 23 26 34 32 27
7 9 11 9 12 19 18 14 12 11 12 9 6 21 26 27 28 27 25 26 28 28 25 22 20 18 19 20 26 26 31 32 31 29 27 26 28 26 22 24 23 24 18
11 12 11 13 17 20 18 13 13 15 15 13 8 10 26 30 30 31 30 27 28 27 23 21 18 17 16 16 18 25 32 36 35 32 30 27 25 25 26 25 23 21 15
12 15 13 14 14 16 17 16 15 16 13 10 6 2 10 22 29 33 29 27 28 28 26 27 27 27 26 27 28 29 33 33 40 35 36 29 27 26 25 24 21 18 15
10 11 12 13 15 18 16 13 16 13 10 8 10 10 10 13 18 21 25 29 34 32 25 29 25 26 29 35 39 39 39 38 39 33 33 32 29 24 24 21 18 19 19
12 14 13 13 14 15 15 13 13 9 10 14 15 16 20 22 22 24 22 20 21 24 28 30 29 29 30 30 38 39 38 42 42 37 30 25 24 24 22 20 18 18 18
10 10 10 12 14 15 15 14 10 5 13 17 17 19 20 23 27 27 23 26 21 23 27 28 30 34 30 22 34 38 37 34 35 32 29 26 21 21 20 19 17 14 16
9 10 10 11 11 11 11 11 8 6 14 17 16 16 19 22 26 30 35 33 35 34 32 27 30 27 37 34 33 33 31 32 30 29 22 20 19 17 16 16 17 16 15

GFSMW_925_spd_108.txt.gz
Wind_Speed
6 4 10 17 23 27 31 34 33 27 25 22 22 21 20 20 23 24 24 32 33 39 40 37 40 40 40 40 44 41 34 28 33 28 16 14 16 19 21 22 23 22 20
6 5 10 16 19 19 27 33 31 29 28 23 24 17 19 17 21 16 23 32 29 40 32 42 40 42 38 40 43 39 31 27 35 17 13 2 3 15 20 21 22 21 21
11 8 9 15 19 23 25 29 31 28 29 26 22 14 16 11 15 16 22 29 30 37 40 42 40 40 41 42 43 45 34 25 31 30 10 3 3 4 13 21 21 22 21
10 8 10 11 22 19 22 29 27 21 28 26 23 20 14 9 15 16 16 28 32 37 39 40 39 39 38 40 41 43 34 34 27 31 16 9 12 3 2 11 22 24 24
11 12 13 15 22 23 29 29 24 22 26 25 20 17 13 16 12 18 16 28 36 39 39 39 37 37 38 41 41 44 33 38 31 30 18 13 9 8 4 3 5 20 27
11 10 7 15 18 21 24 25 23 24 24 22 17 18 14 15 14 16 17 25 29 29 39 36 36 35 37 41 43 44 35 38 36 34 24 18 7 6 4 2 3 4 9
9 6 9 12 19 24 24 23 24 23 24 21 17 17 17 15 20 19 20 21 26 28 33 34 32 32 33 38 40 43 39 34 36 35 29 22 13 10 8 6 5 5 6
17 8 5 5 13 20 22 22 24 21 21 21 20 16 16 16 19 21 25 20 26 30 37 36 35 32 26 29 33 36 34 33 31 32 27 20 13 9 6 3 8 2 2
13 15 4 5 13 17 19 19 20 19 21 22 20 18 16 16 18 19 24 27 23 30 36 37 38 41 38 30 27 27 25 26 25 24 21 20 17 13 8 9 9 5 2
17 15 7 4 12 16 18 18 17 15 15 15 14 18 16 15 17 19 21 25 28 30 32 33 35 38 41 44 40 34 32 29 28 30 24 17 18 14 13 14 15 16 13
15 19 4 5 10 14 17 17 16 14 13 14 19 16 15 13 15 18 20 23 26 29 32 36 37 37 39 41 38 33 35 37 33 28 29 33 28 24 20 18 20 21 20
14 15 7 4 8 13 14 13 12 12 13 14 18 19 19 18 16 16 20 21 23 24 28 28 31 36 36 36 38 36 34 36 35 35 33 34 32 30 26 25 25 22 28
18 15 13 7 1 8 13 16 15 14 13 17 17 17 18 19 20 19 19 20 22 25 28 29 29 30 39 36 35 38 37 35 38 36 37 40 34 34 30 27 25 25 24
17 11 12 12 13 3 8 15 18 19 19 18 19 19 19 19 20 22 22 22 22 24 25 29 31 31 29 34 34 34 33 34 34 31 29 30 33 31 28 28 27 24 22
14 9 9 8 11 17 14 2 11 18 22 21 23 24 23 22 20 18 23 24 23 25 27 27 28 30 30 29 29 29 32 32 29 26 26 25 24 25 25 24 25 25 21
10 3 7 9 10 15 17 17 12 14 20 24 25 25 24 24 25 23 21 23 25 26 25 26 27 29 30 32 31 32 35 32 31 28 21 17 16 16 18 17 17 16 15
8 8 8 9 14 17 16 16 17 12 13 20 22 24 26 25 26 26 25 24 25 25 26 27 28 29 31 31 30 30 31 32 30 27 23 17 11 10 10 13 14 14 12
9 9 9 12 16 19 23 25 13 14 8 8 18 23 25 24 26 26 26 26 26 28 27 28 28 29 29 29 28 28 27 26 23 22 21 20 19 19 23 27 28 28 25
9 9 14 14 16 18 18 15 17 18 16 14 7 2 19 23 24 27 28 27 25 25 26 27 28 29 29 28 28 29 26 21 18 18 18 21 24 26 26 29 35 35 33
12 13 14 13 18 20 20 14 16 17 20 21 19 14 13 25 26 25 28 27 27 25 23 21 19 18 20 20 22 24 25 26 28 26 27 26 29 27 27 31 30 27 22
11 12 9 12 14 15 15 15 16 17 18 18 17 15 13 17 29 27 27 30 29 27 22 19 15 15 14 15 20 26 30 36 34 31 31 29 27 28 26 25 27 28 22
10 13 11 11 14 18 19 16 16 20 17 14 14 14 12 5 12 25 25 26 29 26 30 31 24 20 19 20 23 28 34 35 42 35 34 32 29 28 25 25 24 22 19
9 12 11 11 14 17 16 13 15 16 15 16 17 15 14 10 7 10 15 21 22 22 20 20 23 26 29 31 31 36 42 42 41 37 37 35 32 31 27 21 19 20 23
11 12 11 14 17 20 20 18 16 15 13 12 14 15 18 20 20 18 17 18 15 17 22 24 25 26 27 27 32 34 39 44 49 38 32 30 31 28 26 24 24 21 21
10 12 12 12 12 13 14 16 17 15 16 17 16 17 20 22 27 29 24 25 20 19 20 21 27 30 25 23 28 36 35 35 40 39 33 28 27 26 22 23 23 20 19
9 9 12 12 14 14 14 15 15 12 12 14 15 15 18 22 24 28 34 33 32 33 35 33 34 29 38 33 33 34 35 35 34 32 30 23 20 20 19 20 20 18 18

GFSMW_925_spd_114.txt.gz
Wind_Speed
19 23 19 16 12 10 15 23 26 29 31 30 28 22 21 21 20 20 25 28 32 36 38 37 34 36 32 30 31 31 30 27 25 24 20 15 12 13 16 16 16 16 16
19 18 16 16 12 12 15 22 25 29 29 28 26 18 21 20 20 20 24 26 30 35 34 35 37 36 33 30 32 32 30 28 29 27 22 8 10 14 16 17 17 17 16
15 13 13 16 15 15 18 21 25 29 27 26 23 18 17 13 19 19 22 27 30 32 35 35 35 43 38 33 35 34 34 28 29 28 22 10 9 19 18 17 18 17 17
10 12 13 13 14 15 15 18 23 28 28 28 25 24 22 17 18 20 19 23 25 25 32 35 35 38 42 39 38 37 35 32 30 28 23 18 15 12 8 17 19 18 18
6 8 9 12 10 13 15 18 23 26 26 28 23 22 18 14 14 19 20 21 20 26 30 35 38 42 43 40 42 37 34 33 31 29 23 19 18 18 11 10 18 20 21
4 5 4 4 8 13 15 19 23 25 24 25 21 20 19 16 15 17 17 17 18 24 29 31 38 41 43 42 45 43 37 33 32 29 27 25 20 16 13 8 17 20 21
6 7 5 1 7 11 14 17 24 24 23 23 21 20 18 16 17 18 20 16 21 23 27 33 37 38 37 43 45 42 39 34 32 32 28 23 21 15 15 12 12 14 14
7 9 7 3 4 8 12 16 21 21 23 23 22 20 16 15 17 17 15 16 21 26 29 35 36 38 39 44 43 40 39 36 33 32 28 24 20 16 14 12 12 8 11
9 10 9 7 5 4 9 14 17 18 20 22 20 18 15 16 15 13 12 17 17 22 25 30 31 31 35 35 38 36 35 32 30 32 28 23 19 16 14 11 9 9 6
9 9 9 8 7 1 7 12 14 17 17 19 18 16 14 14 12 12 10 14 18 21 24 27 29 31 34 35 33 31 31 31 28 27 26 22 17 16 14 13 6 5 7
9 11 10 10 8 2 4 9 12 15 17 17 16 14 13 13 11 11 10 13 19 24 26 28 30 30 31 35 30 29 32 31 28 27 27 23 23 22 19 18 13 10 8
12 13 13 12 18 5 4 9 11 13 15 14 14 14 13 13 10 9 10 15 21 25 29 29 30 31 29 32 32 31 31 30 28 28 28 26 26 25 27 22 22 20 14
12 12 13 13 14 21 4 8 10 11 12 14 14 13 15 14 12 11 10 11 19 24 28 31 30 30 29 34 32 30 30 29 31 35 30 27 24 24 18 20 24 19 22
11 12 13 13 15 17 18 20 2 9 11 13 14 14 16 16 14 12 12 12 13 21 25 30 32 32 35 35 35 33 33 30 29 30 31 30 31 30 28 25 26 24 24
10 11 12 11 13 15 15 16 20 18 6 15 14 14 16 16 14 14 13 13 14 15 20 24 28 32 33 34 33 33 32 28 25 29 29 30 29 27 27 29 29 28 26
10 10 12 11 11 14 13 13 16 20 14 3 13 14 15 15 16 16 15 14 14 15 16 17 25 27 28 33 35 36 33 33 29 33 33 32 31 31 30 31 33 31 29
9 10 11 9 12 13 10 11 16 19 17 13 5 10 14 16 17 16 16 16 15 15 15 16 19 20 25 28 30 35 33 33 33 33 34 29 25 27 24 23 22 20 20
10 10 9 11 13 14 16 15 15 14 16 16 14 12 3 15 17 16 16 17 17 17 16 17 17 18 22 22 26 29 30 32 32 33 34 32 27 23 20 17 13 9 6
8 10 10 12 13 14 14 13 16 16 19 19 16 14 11 7 4 18 20 19 18 18 17 18 20 19 16 22 24 29 27 25 24 26 28 27 26 23 23 22 24 27 30
12 10 9 11 14 15 13 14 15 14 16 19 17 14 12 10 9 8 16 20 20 20 22 19 18 19 22 21 26 30 29 26 24 22 22 23 24 25 26 27 32 35 28
12 10 11 12 14 13 12 11 11 14 12 12 12 12 13 11 9 11 13 19 19 20 22 21 15 15 16 15 21 30 30 31 27 24 21 23 27 27 26 28 30 32 32
11 12 11 12 13 14 13 10 12 11 9 10 12 13 14 12 10 5 6 16 19 20 18 17 15 10 7 9 16 21 16 23 29 28 30 31 30 29 29 30 34 33 32
11 12 11 11 14 14 14 12 13 12 10 10 11 11 11 10 13 14 9 13 15 17 17 18 19 22 21 20 11 14 25 31 36 35 38 37 37 37 36 34 30 29 27
11 13 12 13 14 14 13 13 13 11 12 13 13 13 18 17 19 20 16 14 15 18 19 20 21 22 24 27 31 34 39 44 46 42 37 38 40 39 35 31 26 20 15
10 12 12 13 14 15 16 17 15 13 13 13 13 14 17 21 25 30 20 18 14 16 23 22 23 24 22 22 33 37 39 40 39 44 39 32 28 28 27 25 22 20 17
11 12 13 13 14 15 16 16 14 13 12 15 15 17 17 19 21 24 33 36 31 28 27 27 27 28 31 30 31 34 35 35 39 35 29 26 20 20 19 21 19 17 17

GFSMW_925_spd_117.txt.gz
Wind_Speed
14 19 22 22 22 19 17 19 22 28 29 30 29 25 24 22 19 18 18 20 20 22 23 23 22 27 28 29 32 30 34 27 25 26 22 15 18 14 18 19 18 18 17
20 19 21 22 22 18 19 20 23 27 30 30 26 23 24 20 18 18 19 19 22 21 22 22 23 29 28 33 37 31 27 25 24 23 20 7 8 11 19 20 20 18 19
21 20 18 21 18 22 22 21 23 27 28 28 25 24 20 13 16 16 18 20 21 27 28 29 27 29 28 34 36 35 33 26 28 28 21 10 7 18 18 20 21 20 19
20 16 12 13 20 22 20 20 22 26 27 30 28 29 24 18 19 18 20 20 22 22 27 32 33 32 35 33 39 34 36 33 28 29 26 23 19 12 11 21 20 19 20
7 11 13 14 19 20 18 19 21 26 27 30 30 28 25 20 17 18 17 19 20 23 28 32 35 32 37 40 41 38 33 35 32 30 30 25 15 29 16 12 19 22 22
5 5 5 5 12 11 13 14 19 24 26 28 29 28 25 20 18 18 17 18 20 21 26 31 33 36 36 33 45 46 40 32 32 32 30 24 17 19 16 10 16 19 22
4 1 2 1 3 10 10 11 17 21 22 26 27 25 22 19 18 17 17 16 16 16 21 25 32 35 39 40 37 42 41 36 33 31 31 22 20 21 18 14 17 14 20
5 6 6 4 2 3 9 11 16 16 18 21 23 21 19 18 16 16 15 16 18 16 17 27 28 33 38 40 44 40 42 42 34 32 31 23 23 18 18 14 13 10 13
7 8 9 7 7 1 4 8 12 15 17 20 21 20 19 17 16 15 14 15 12 12 15 22 27 32 39 42 41 39 42 42 36 34 29 28 21 17 13 12 13 17 9
7 7 8 8 7 2 3 6 9 12 16 21 20 20 19 17 13 13 10 11 11 13 15 18 23 29 32 36 39 34 37 38 36 35 35 33 23 19 16 13 13 13 11
8 9 7 9 11 6 1 5 8 10 15 18 18 17 16 15 13 12 11 11 11 13 15 16 21 26 28 29 33 31 31 37 36 32 32 29 25 22 19 17 15 16 12
10 10 10 10 12 14 8 2 7 8 13 10 12 12 13 13 13 11 11 10 14 14 15 16 22 25 27 29 28 28 28 34 35 32 29 27 27 24 21 19 18 16 16
11 11 12 13 12 13 14 19 2 5 9 12 12 11 13 13 12 11 10 11 15 17 17 21 24 26 26 28 27 26 27 27 28 29 30 29 26 24 20 22 22 21 21
11 11 10 11 13 14 13 14 17 20 8 11 11 12 13 12 13 13 12 12 15 19 22 25 25 25 26 29 31 30 30 27 27 29 32 31 28 23 20 21 21 20 20
9 10 10 10 10 13 15 14 15 17 18 10 9 13 13 15 16 14 13 12 14 20 22 26 27 28 26 26 30 28 27 26 26 27 27 28 29 23 26 26 25 23 22
10 10 9 10 9 11 12 13 15 16 17 16 17 14 13 14 13 12 13 14 13 16 22 25 27 29 31 31 31 29 30 28 27 28 28 27 29 31 27 25 23 23 23
9 9 9 8 10 10 9 12 14 15 17 17 19 23 7 13 9 12 14 13 15 15 20 21 25 26 29 33 37 34 29 30 30 26 29 28 27 28 28 27 26 25 27
9 9 9 10 12 11 10 10 12 13 14 17 17 22 17 8 6 13 12 15 14 14 15 14 16 23 26 26 28 31 32 29 30 33 33 35 33 30 29 24 18 12 9
8 9 10 11 11 13 12 10 13 14 14 16 17 18 19 13 9 3 14 14 14 13 13 13 15 16 15 19 23 26 30 26 27 28 29 32 32 29 27 26 23 21 23
11 11 11 12 14 15 13 12 13 14 16 16 16 17 16 15 11 10 8 10 16 15 13 12 13 14 9 13 19 22 26 25 22 19 20 22 25 24 24 25 28 31 26
12 10 12 13 14 15 13 12 14 17 16 13 8 9 12 14 13 12 11 10 10 16 17 15 11 10 9 10 17 22 22 24 22 18 16 15 19 22 22 23 25 29 32
12 12 11 13 15 16 14 13 15 16 17 19 21 21 21 16 14 11 9 2 12 19 18 18 15 12 8 6 12 17 19 21 24 24 25 25 24 23 20 22 30 31 34
13 13 13 13 15 16 16 14 15 15 14 14 15 16 16 19 17 16 13 9 9 17 18 18 19 20 20 21 13 11 17 22 30 33 34 34 36 36 35 30 28 29 27
14 14 14 14 15 16 16 15 15 13 14 14 16 18 20 19 20 20 17 15 13 15 16 18 19 21 23 26 29 33 39 44 47 42 35 37 39 38 34 31 28 26 23
14 15 14 14 15 15 16 17 16 13 12 13 14 14 16 19 23 31 23 21 15 13 18 19 23 25 21 23 30 33 36 39 44 42 38 33 29 29 28 27 25 24 22
16 15 15 15 15 14 15 17 16 15 12 13 15 15 15 17 19 22 30 34 28 23 23 22 27 29 30 29 30 33 33 33 33 32 30 24 24 23 19 21 18 16 17